TimeCST,TemperatureF,Dew PointF,Humidity,Sea Level PressureIn,VisibilityMPH,Wind Direction,Wind SpeedMPH,Gust SpeedMPH,PrecipitationIn,Events,Conditions,WindDirDegrees,DateUTC
12:13 AM,37.4,32.0,81,29.99,10.0,SSE,13.8,18.4,N/A,,Clear,160,2012-11-08 06:13:00
12:33 AM,37.0,32.0,82,29.99,10.0,SSE,12.7,-,N/A,,Clear,150,2012-11-08 06:33:00
12:53 AM,37.4,31.8,80,29.97,10.0,SSE,15.0,21.9,N/A,,Clear,150,2012-11-08 06:53:00
1:13 AM,37.4,31.8,80,29.96,10.0,SSE,16.1,21.9,N/A,,Clear,150,2012-11-08 07:13:00
1:33 AM,37.4,31.8,80,29.95,10.0,SSE,13.8,24.2,N/A,,Clear,150,2012-11-08 07:33:00
1:53 AM,37.0,31.8,81,29.95,10.0,SSE,13.8,20.7,N/A,,Clear,150,2012-11-08 07:53:00
2:14 AM,37.2,31.8,81,29.94,10.0,SSE,13.8,21.9,N/A,,Clear,150,2012-11-08 08:14:00
2:33 AM,37.4,32.0,81,29.94,10.0,SSE,16.1,21.9,N/A,,Clear,150,2012-11-08 08:33:00
2:53 AM,37.0,31.8,81,29.93,10.0,SSE,12.7,21.9,N/A,,Clear,150,2012-11-08 08:53:00
3:14 AM,36.9,32.0,83,29.93,10.0,SSE,15.0,20.7,N/A,,Clear,150,2012-11-08 09:14:00
3:33 AM,36.7,31.8,83,29.92,10.0,SSE,12.7,18.4,N/A,,Clear,150,2012-11-08 09:33:00
3:53 AM,36.5,31.8,83,29.91,10.0,SSE,12.7,18.4,N/A,,Clear,150,2012-11-08 09:53:00
4:14 AM,35.8,31.6,85,29.91,10.0,SSE,11.5,-,N/A,,Clear,150,2012-11-08 10:14:00
4:34 AM,35.6,31.6,85,29.90,10.0,SSE,12.7,17.3,N/A,,Clear,150,2012-11-08 10:34:00
4:54 AM,35.2,31.6,87,29.88,10.0,SSE,15.0,23.0,N/A,,Clear,150,2012-11-08 10:54:00
5:13 AM,35.2,31.5,86,29.89,10.0,SSE,13.8,21.9,N/A,,Clear,150,2012-11-08 11:13:00
5:33 AM,35.1,31.6,87,29.89,10.0,SSE,8.1,-,N/A,,Clear,150,2012-11-08 11:33:00
5:53 AM,35.1,31.5,87,29.89,10.0,SSE,9.2,-,N/A,,Clear,160,2012-11-08 11:53:00
6:13 AM,35.1,31.5,87,29.90,10.0,SSE,8.1,-,N/A,,Clear,150,2012-11-08 12:13:00
6:33 AM,35.2,31.5,86,29.90,10.0,SSE,8.1,-,N/A,,Clear,160,2012-11-08 12:33:00
6:53 AM,35.4,31.5,85,29.90,10.0,SSE,9.2,16.1,N/A,,Clear,160,2012-11-08 12:53:00
7:13 AM,34.9,31.3,87,29.90,10.0,SSE,8.1,-,N/A,,Clear,160,2012-11-08 13:13:00
7:34 AM,34.7,31.5,88,29.91,10.0,South,8.1,-,N/A,,Clear,170,2012-11-08 13:34:00
7:53 AM,34.7,31.6,89,29.91,10.0,SSE,6.9,-,N/A,,Clear,160,2012-11-08 13:53:00
8:13 AM,35.6,32.0,87,29.91,10.0,South,9.2,-,N/A,,Clear,170,2012-11-08 14:13:00
8:34 AM,36.9,32.0,83,29.91,10.0,South,10.4,-,N/A,,Clear,170,2012-11-08 14:34:00
8:54 AM,38.1,32.7,81,29.92,10.0,South,8.1,-,N/A,,Clear,180,2012-11-08 14:54:00
9:13 AM,39.2,33.1,79,29.92,10.0,South,12.7,-,N/A,,Clear,170,2012-11-08 15:13:00
9:33 AM,39.4,33.3,79,29.91,10.0,SSE,9.2,-,N/A,,Clear,160,2012-11-08 15:33:00
9:53 AM,41.0,34.0,76,29.92,10.0,South,8.1,-,N/A,,Clear,180,2012-11-08 15:53:00
10:13 AM,42.1,34.3,74,29.92,10.0,South,8.1,-,N/A,,Clear,190,2012-11-08 16:13:00
10:33 AM,42.6,34.2,72,29.91,10.0,South,9.2,-,N/A,,Clear,180,2012-11-08 16:33:00
10:53 AM,43.7,34.9,71,29.92,10.0,SSW,6.9,-,N/A,,Clear,200,2012-11-08 16:53:00
11:13 AM,45.3,35.2,68,29.92,10.0,WSW,9.2,-,N/A,,Clear,240,2012-11-08 17:13:00
11:33 AM,44.1,34.5,69,29.92,10.0,South,6.9,-,N/A,,Clear,190,2012-11-08 17:33:00
11:54 AM,44.1,34.3,69,29.91,10.0,South,4.6,-,N/A,,Clear,170,2012-11-08 17:54:00
12:13 PM,44.8,34.5,67,29.91,10.0,Calm,Calm,-,N/A,,Clear,0,2012-11-08 18:13:00
12:33 PM,45.9,34.3,64,29.91,10.0,Calm,Calm,-,N/A,,Clear,0,2012-11-08 18:33:00
12:54 PM,46.9,34.3,62,29.91,10.0,West,3.5,-,N/A,,Clear,270,2012-11-08 18:54:00
1:13 PM,47.8,34.7,60,29.91,10.0,Calm,Calm,-,N/A,,Clear,0,2012-11-08 19:13:00
1:33 PM,48.9,36.0,61,29.92,10.0,WNW,3.5,-,N/A,,Clear,290,2012-11-08 19:33:00
1:53 PM,49.8,36.0,59,29.92,10.0,NNW,5.8,-,N/A,,Clear,340,2012-11-08 19:53:00
2:14 PM,50.4,36.3,59,29.92,10.0,NNW,6.9,-,N/A,,Clear,340,2012-11-08 20:14:00
2:32 PM,50.9,36.1,57,29.92,10.0,Calm,Calm,-,N/A,,Clear,0,2012-11-08 20:32:00
2:53 PM,51.3,36.7,57,29.93,10.0,NW,6.9,-,N/A,,Clear,310,2012-11-08 20:53:00
3:14 PM,51.1,36.3,57,29.93,10.0,NNW,4.6,-,N/A,,Clear,330,2012-11-08 21:14:00
3:33 PM,50.5,36.7,59,29.94,10.0,NW,5.8,-,N/A,,Clear,310,2012-11-08 21:33:00
3:53 PM,50.2,36.0,58,29.94,10.0,NNW,4.6,-,N/A,,Clear,330,2012-11-08 21:53:00
4:13 PM,49.5,35.4,58,29.95,10.0,NNW,4.6,-,N/A,,Clear,340,2012-11-08 22:13:00
4:33 PM,48.7,35.2,60,29.95,10.0,NNW,3.5,-,N/A,,Clear,340,2012-11-08 22:33:00
4:53 PM,47.5,35.2,63,29.95,10.0,Calm,Calm,-,N/A,,Clear,0,2012-11-08 22:53:00
5:13 PM,46.6,35.2,65,29.95,10.0,Calm,Calm,-,N/A,,Clear,0,2012-11-08 23:13:00
5:33 PM,44.6,35.1,69,29.96,10.0,North,3.5,-,N/A,,Clear,350,2012-11-08 23:33:00
5:53 PM,42.3,36.7,81,29.97,10.0,NNW,8.1,-,N/A,,Clear,330,2012-11-08 23:53:00
6:13 PM,42.1,37.0,82,29.98,10.0,NNW,9.2,-,N/A,,Clear,340,2012-11-09 00:13:00
6:33 PM,41.5,36.7,83,29.99,10.0,North,5.8,-,N/A,,Clear,350,2012-11-09 00:33:00
6:53 PM,40.6,36.1,84,30.00,10.0,North,6.9,-,N/A,,Clear,360,2012-11-09 00:53:00
7:13 PM,39.9,35.8,85,30.00,10.0,North,6.9,-,N/A,,Clear,350,2012-11-09 01:13:00
7:33 PM,39.2,35.6,87,30.01,10.0,North,4.6,-,N/A,,Clear,10,2012-11-09 01:33:00
7:53 PM,38.5,35.6,89,30.01,10.0,North,4.6,-,N/A,,Clear,10,2012-11-09 01:53:00
8:13 PM,38.3,35.2,89,30.01,10.0,NNE,8.1,-,N/A,,Clear,20,2012-11-09 02:13:00
8:33 PM,37.6,35.1,91,30.01,10.0,NNE,6.9,-,N/A,,Clear,20,2012-11-09 02:33:00
8:53 PM,37.4,34.9,91,30.01,10.0,NNE,6.9,-,N/A,,Clear,20,2012-11-09 02:53:00
9:13 PM,36.9,34.7,92,30.02,10.0,NNE,5.8,-,N/A,,Clear,20,2012-11-09 03:13:00
9:33 PM,36.5,34.3,92,30.02,7.0,NNE,5.8,-,N/A,,Clear,30,2012-11-09 03:33:00
9:53 PM,36.5,34.0,91,30.03,7.0,NNE,5.8,-,N/A,,Clear,20,2012-11-09 03:53:00
10:13 PM,35.6,33.6,92,30.03,7.0,NNE,3.5,-,N/A,,Clear,30,2012-11-09 04:13:00
10:33 PM,35.1,33.3,93,30.03,7.0,NNE,4.6,-,N/A,,Clear,20,2012-11-09 04:33:00
10:53 PM,34.7,33.1,94,30.03,7.0,North,4.6,-,N/A,,Clear,10,2012-11-09 04:53:00
11:13 PM,34.2,32.9,95,30.03,5.0,NNE,4.6,-,N/A,,Clear,20,2012-11-09 05:13:00
11:33 PM,33.8,32.2,94,30.03,5.0,NNE,4.6,-,N/A,,Clear,30,2012-11-09 05:33:00
11:53 PM,33.8,32.4,94,30.03,5.0,NNE,4.6,-,N/A,,Clear,30,2012-11-09 05:53:00